GAOFEN-9 01

Last updated on Sat Oct 25 2025 00:02:32 GMT+0000 (Coordinated Universal Time)

1 40894U 15047A 25297.72400704 .00001739 00000+0 22303-3 0 9993 2 40894 97.6615 338.7825 0027409 189.3116 170.7593 14.82234253545301
UTC large
Height (km)
Speed (km/s)
/
Latitude / Longitude
Inclination (degrees)
Orbital Period (minutes)
Azimuth
Elevation
Range (km)
Doppler Factor

Next 0 passes for location: London (51.5072 / 0.1276)

Sorry there are no passes over London.